Year,Month,Day,Hour,Minute,Value (Times are PST for temperature in C)
2018,07,22,00,00,16.00
2018,07,22,00,01,15.90
2018,07,22,00,02,15.90
2018,07,22,00,03,15.90
2018,07,22,00,04,15.90
2018,07,22,00,05,15.90
2018,07,22,00,06,15.90
2018,07,22,00,07,15.90
2018,07,22,00,08,15.90
2018,07,22,00,09,15.80
2018,07,22,00,10,15.80
2018,07,22,00,11,15.80
2018,07,22,00,12,15.80
2018,07,22,00,13,15.80
2018,07,22,00,14,15.80
2018,07,22,00,15,15.80
2018,07,22,00,16,15.80
2018,07,22,00,17,15.80
2018,07,22,00,18,15.70
2018,07,22,00,19,15.70
2018,07,22,00,20,15.70
2018,07,22,00,21,15.70
2018,07,22,00,22,15.70
2018,07,22,00,23,15.70
2018,07,22,00,24,15.70
2018,07,22,00,25,15.70
2018,07,22,00,26,15.60
2018,07,22,00,27,15.60
2018,07,22,00,28,15.60
2018,07,22,00,29,15.60
2018,07,22,00,30,15.60
2018,07,22,00,31,15.60
2018,07,22,00,32,15.60
2018,07,22,00,33,15.60
2018,07,22,00,34,15.60
2018,07,22,00,35,15.60
2018,07,22,00,36,15.50
2018,07,22,00,37,15.50
2018,07,22,00,38,15.50
2018,07,22,00,39,15.50
2018,07,22,00,40,15.50
2018,07,22,00,41,15.40
2018,07,22,00,42,15.40
2018,07,22,00,43,15.40
2018,07,22,00,44,15.40
2018,07,22,00,45,15.40
2018,07,22,00,46,15.40
2018,07,22,00,47,15.40
2018,07,22,00,48,15.40
2018,07,22,00,49,15.40
2018,07,22,00,50,15.30
2018,07,22,00,51,15.30
2018,07,22,00,52,15.30
2018,07,22,00,53,15.30
2018,07,22,00,54,15.30
2018,07,22,00,55,15.30
2018,07,22,00,56,15.20
2018,07,22,00,57,15.20
2018,07,22,00,58,15.20
2018,07,22,00,59,15.20
2018,07,22,01,00,15.10
2018,07,22,01,01,15.10
2018,07,22,01,02,15.00
2018,07,22,01,03,15.00
2018,07,22,01,04,15.00
2018,07,22,01,05,15.00
2018,07,22,01,06,15.00
2018,07,22,01,07,15.00
2018,07,22,01,08,15.00
2018,07,22,01,09,15.00
2018,07,22,01,10,15.00
2018,07,22,01,11,15.00
2018,07,22,01,12,15.00
2018,07,22,01,13,15.00
2018,07,22,01,14,15.00
2018,07,22,01,15,15.00
2018,07,22,01,16,15.00
2018,07,22,01,17,15.00
2018,07,22,01,18,15.00
2018,07,22,01,19,15.00
2018,07,22,01,20,15.00
2018,07,22,01,21,15.00
2018,07,22,01,22,15.00
2018,07,22,01,23,15.00
2018,07,22,01,24,15.00
2018,07,22,01,25,15.00
2018,07,22,01,26,15.00
2018,07,22,01,27,15.00
2018,07,22,01,28,15.00
2018,07,22,01,29,15.00
2018,07,22,01,30,15.00
2018,07,22,01,31,15.00
2018,07,22,01,32,15.00
2018,07,22,01,33,15.00
2018,07,22,01,34,15.00
2018,07,22,01,35,15.00
2018,07,22,01,36,15.00
2018,07,22,01,37,15.00
2018,07,22,01,38,15.00
2018,07,22,01,39,15.00
2018,07,22,01,40,15.00
2018,07,22,01,41,15.00
2018,07,22,01,42,15.00
2018,07,22,01,43,15.00
2018,07,22,01,44,15.00
2018,07,22,01,45,15.00
2018,07,22,01,46,15.00
2018,07,22,01,47,15.00
2018,07,22,01,48,15.00
2018,07,22,01,49,15.00
2018,07,22,01,50,15.00
2018,07,22,01,51,15.00
2018,07,22,01,52,15.00
2018,07,22,01,53,15.00
2018,07,22,01,54,15.00
2018,07,22,01,55,15.00
2018,07,22,01,56,15.00
2018,07,22,01,57,15.00
2018,07,22,01,58,15.00
2018,07,22,01,59,15.00
2018,07,22,02,00,15.00
2018,07,22,02,01,15.00
2018,07,22,02,02,15.00
2018,07,22,02,03,15.00
2018,07,22,02,04,15.00
2018,07,22,02,05,15.00
2018,07,22,02,06,15.00
2018,07,22,02,07,15.00
2018,07,22,02,08,15.00
2018,07,22,02,09,15.00
2018,07,22,02,10,15.00
2018,07,22,02,11,15.00
2018,07,22,02,12,15.00
2018,07,22,02,13,15.00
2018,07,22,02,14,15.00
2018,07,22,02,15,15.00
2018,07,22,02,16,15.00
2018,07,22,02,17,15.00
2018,07,22,02,18,15.00
2018,07,22,02,19,15.00
2018,07,22,02,20,15.00
2018,07,22,02,21,15.00
2018,07,22,02,22,15.00
2018,07,22,02,23,15.00
2018,07,22,02,24,15.00
2018,07,22,02,25,15.00
2018,07,22,02,26,14.90
2018,07,22,02,27,14.90
2018,07,22,02,28,14.90
2018,07,22,02,29,14.80
2018,07,22,02,30,14.80
2018,07,22,02,31,14.80
2018,07,22,02,32,14.80
2018,07,22,02,33,14.80
2018,07,22,02,34,14.80
2018,07,22,02,35,14.80
2018,07,22,02,36,14.70
2018,07,22,02,37,14.70
2018,07,22,02,38,14.70
2018,07,22,02,39,14.70
2018,07,22,02,40,14.70
2018,07,22,02,41,14.60
2018,07,22,02,42,14.60
2018,07,22,02,43,14.60
2018,07,22,02,44,14.60
2018,07,22,02,45,14.60
2018,07,22,02,46,14.60
2018,07,22,02,47,14.60
2018,07,22,02,48,14.50
2018,07,22,02,49,14.50
2018,07,22,02,50,14.50
2018,07,22,02,51,14.50
2018,07,22,02,52,14.50
2018,07,22,02,53,14.40
2018,07,22,02,54,14.40
2018,07,22,02,55,14.40
2018,07,22,02,56,14.40
2018,07,22,02,57,14.40
2018,07,22,02,58,14.40
2018,07,22,02,59,14.40
2018,07,22,03,00,14.40
2018,07,22,03,01,14.40
2018,07,22,03,02,14.50
2018,07,22,03,03,14.50
2018,07,22,03,04,14.50
2018,07,22,03,05,14.50
2018,07,22,03,06,14.50
2018,07,22,03,07,14.50
2018,07,22,03,08,14.50
2018,07,22,03,09,14.50
2018,07,22,03,10,14.50
2018,07,22,03,11,14.50
2018,07,22,03,12,14.50
2018,07,22,03,13,14.50
2018,07,22,03,14,14.50
2018,07,22,03,15,14.50
2018,07,22,03,16,14.50
2018,07,22,03,17,14.50
2018,07,22,03,18,14.50
2018,07,22,03,19,14.50
2018,07,22,03,20,14.50
2018,07,22,03,21,14.50
2018,07,22,03,22,14.50
2018,07,22,03,23,14.50
2018,07,22,03,24,14.50
2018,07,22,03,25,14.50
2018,07,22,03,26,14.50
2018,07,22,03,27,14.40
2018,07,22,03,28,14.40
2018,07,22,03,29,14.40
2018,07,22,03,30,14.40
2018,07,22,03,31,14.40
2018,07,22,03,32,14.40
2018,07,22,03,33,14.40
2018,07,22,03,34,14.40
2018,07,22,03,35,14.30
2018,07,22,03,36,14.30
2018,07,22,03,37,14.30
2018,07,22,03,38,14.30
2018,07,22,03,39,14.30
2018,07,22,03,40,14.30
2018,07,22,03,41,14.20
2018,07,22,03,42,14.20
2018,07,22,03,43,14.20
2018,07,22,03,44,14.20
2018,07,22,03,45,14.20
2018,07,22,03,46,14.10
2018,07,22,03,47,14.10
2018,07,22,03,48,14.10
2018,07,22,03,49,14.10
2018,07,22,03,50,14.10
2018,07,22,03,51,14.10
2018,07,22,03,52,14.00
2018,07,22,03,53,14.00
2018,07,22,03,54,14.00
2018,07,22,03,55,14.00
2018,07,22,03,56,13.90
2018,07,22,03,57,13.90
2018,07,22,03,58,13.90
2018,07,22,03,59,13.90
2018,07,22,04,00,13.90
2018,07,22,04,01,13.80
2018,07,22,04,02,13.80
2018,07,22,04,03,13.80
2018,07,22,04,04,13.80
2018,07,22,04,05,13.80
2018,07,22,04,06,13.80
2018,07,22,04,07,13.80
2018,07,22,04,08,13.80
2018,07,22,04,09,13.80
2018,07,22,04,10,13.70
2018,07,22,04,11,13.70
2018,07,22,04,12,13.70
2018,07,22,04,13,13.70
2018,07,22,04,14,13.70
2018,07,22,04,15,13.70
2018,07,22,04,16,13.70
2018,07,22,04,17,13.70
2018,07,22,04,18,13.70
2018,07,22,04,19,13.70
2018,07,22,04,20,13.70
2018,07,22,04,21,13.60
2018,07,22,04,22,13.60
2018,07,22,04,23,13.60
2018,07,22,04,24,13.60
2018,07,22,04,25,13.60
2018,07,22,04,26,13.60
2018,07,22,04,27,13.60
2018,07,22,04,28,13.60
2018,07,22,04,29,13.60
2018,07,22,04,30,13.60
2018,07,22,04,31,13.60
2018,07,22,04,32,13.60
2018,07,22,04,33,13.50
2018,07,22,04,34,13.50
2018,07,22,04,35,13.50
2018,07,22,04,36,13.50
2018,07,22,04,37,13.50
2018,07,22,04,38,13.50
2018,07,22,04,39,13.40
2018,07,22,04,40,13.40
2018,07,22,04,41,13.40
2018,07,22,04,42,13.40
2018,07,22,04,43,13.40
2018,07,22,04,44,13.40
2018,07,22,04,45,13.40
2018,07,22,04,46,13.40
2018,07,22,04,47,13.40
2018,07,22,04,48,13.40
2018,07,22,04,49,13.40
2018,07,22,04,50,13.40
2018,07,22,04,51,13.40
2018,07,22,04,52,13.40
2018,07,22,04,53,13.40
2018,07,22,04,54,13.30
2018,07,22,04,55,13.30
2018,07,22,04,56,13.30
2018,07,22,04,57,13.30
2018,07,22,04,58,13.30
2018,07,22,04,59,13.30
2018,07,22,05,00,13.30
2018,07,22,05,01,13.30
2018,07,22,05,02,13.30
2018,07,22,05,03,13.30
2018,07,22,05,04,13.30
2018,07,22,05,05,13.30
2018,07,22,05,06,13.30
2018,07,22,05,07,13.30
2018,07,22,05,08,13.30
2018,07,22,05,09,13.30
2018,07,22,05,10,13.30
2018,07,22,05,11,13.20
2018,07,22,05,12,13.20
2018,07,22,05,13,13.20
2018,07,22,05,14,13.20
2018,07,22,05,15,13.20
2018,07,22,05,16,13.20
2018,07,22,05,17,13.30
2018,07,22,05,18,13.20
2018,07,22,05,19,13.20
2018,07,22,05,20,13.20
2018,07,22,05,21,13.20
2018,07,22,05,22,13.20
2018,07,22,05,23,13.20
2018,07,22,05,24,13.20
2018,07,22,05,25,13.20
2018,07,22,05,26,13.20
2018,07,22,05,27,13.20
2018,07,22,05,28,13.20
2018,07,22,05,29,13.20
2018,07,22,05,30,13.20
2018,07,22,05,31,13.20
2018,07,22,05,32,13.20
2018,07,22,05,33,13.20
2018,07,22,05,34,13.20
2018,07,22,05,35,13.20
2018,07,22,05,36,13.20
2018,07,22,05,37,13.20
2018,07,22,05,38,13.20
2018,07,22,05,39,13.20
2018,07,22,05,40,13.20
2018,07,22,05,41,13.20
2018,07,22,05,42,13.20
2018,07,22,05,43,13.20
2018,07,22,05,44,13.20
2018,07,22,05,45,13.20
2018,07,22,05,46,13.20
2018,07,22,05,47,13.20
2018,07,22,05,48,13.20
2018,07,22,05,49,13.20
2018,07,22,05,50,13.10
2018,07,22,05,51,13.10
2018,07,22,05,52,13.10
2018,07,22,05,53,13.10
2018,07,22,05,54,13.10
2018,07,22,05,55,13.10
2018,07,22,05,56,13.10
2018,07,22,05,57,13.10
2018,07,22,05,58,13.10
2018,07,22,05,59,13.10
2018,07,22,06,00,13.10
2018,07,22,06,01,13.10
2018,07,22,06,02,13.20
2018,07,22,06,03,13.20
2018,07,22,06,04,13.10
2018,07,22,06,05,13.10
2018,07,22,06,06,13.20
2018,07,22,06,07,13.10
2018,07,22,06,08,13.10
2018,07,22,06,09,13.10
2018,07,22,06,10,13.10
2018,07,22,06,11,13.10
2018,07,22,06,12,13.10
2018,07,22,06,13,13.10
2018,07,22,06,14,13.10
2018,07,22,06,15,13.10
2018,07,22,06,16,13.10
2018,07,22,06,17,13.10
2018,07,22,06,18,13.10
2018,07,22,06,19,13.10
2018,07,22,06,20,13.10
2018,07,22,06,21,13.10
2018,07,22,06,22,13.10
2018,07,22,06,23,13.10
2018,07,22,06,24,13.10
2018,07,22,06,25,13.10
2018,07,22,06,26,13.10
2018,07,22,06,27,13.10
2018,07,22,06,28,13.10
2018,07,22,06,29,13.10
2018,07,22,06,30,13.20
2018,07,22,06,31,13.20
2018,07,22,06,32,13.20
2018,07,22,06,33,13.20
2018,07,22,06,34,13.20
2018,07,22,06,35,13.20
2018,07,22,06,36,13.20
2018,07,22,06,37,13.20
2018,07,22,06,38,13.20
2018,07,22,06,39,13.20
2018,07,22,06,40,13.20
2018,07,22,06,41,13.20
2018,07,22,06,42,13.20
2018,07,22,06,43,13.20
2018,07,22,06,44,13.20
2018,07,22,06,45,13.30
2018,07,22,06,46,13.30
2018,07,22,06,47,13.30
2018,07,22,06,48,13.30
2018,07,22,06,49,13.30
2018,07,22,06,50,13.30
2018,07,22,06,51,13.30
2018,07,22,06,52,13.30
2018,07,22,06,53,13.30
2018,07,22,06,54,13.30
2018,07,22,06,55,13.30
2018,07,22,06,56,13.30
2018,07,22,06,57,13.30
2018,07,22,06,58,13.30
2018,07,22,06,59,13.30
2018,07,22,07,00,13.30
2018,07,22,07,01,13.30
2018,07,22,07,02,13.30
2018,07,22,07,03,13.40
2018,07,22,07,04,13.40
2018,07,22,07,05,13.40
2018,07,22,07,06,13.40
2018,07,22,07,07,13.40
2018,07,22,07,08,13.40
2018,07,22,07,09,13.40
2018,07,22,07,10,13.50
2018,07,22,07,11,13.50
2018,07,22,07,12,13.50
2018,07,22,07,13,13.60
2018,07,22,07,14,13.60
2018,07,22,07,15,13.60
2018,07,22,07,16,13.70
2018,07,22,07,17,13.70
2018,07,22,07,18,13.70
2018,07,22,07,19,13.70
2018,07,22,07,20,13.80
2018,07,22,07,21,13.80
2018,07,22,07,22,13.80
2018,07,22,07,23,13.80
2018,07,22,07,24,13.90
2018,07,22,07,25,13.90
2018,07,22,07,26,13.90
2018,07,22,07,27,13.90
2018,07,22,07,28,14.00
2018,07,22,07,29,14.00
2018,07,22,07,30,14.10
2018,07,22,07,31,14.10
2018,07,22,07,32,14.10
2018,07,22,07,33,14.20
2018,07,22,07,34,14.20
2018,07,22,07,35,14.20
2018,07,22,07,36,14.30
2018,07,22,07,37,14.30
2018,07,22,07,38,14.40
2018,07,22,07,39,14.40
2018,07,22,07,40,14.40
2018,07,22,07,41,14.50
2018,07,22,07,42,14.50
2018,07,22,07,43,14.60
2018,07,22,07,44,14.60
2018,07,22,07,45,14.70
2018,07,22,07,46,14.80
2018,07,22,07,47,14.80
2018,07,22,07,48,14.90
2018,07,22,07,49,15.00
2018,07,22,07,50,15.00
2018,07,22,07,51,15.00
2018,07,22,07,52,15.00
2018,07,22,07,53,15.00
2018,07,22,07,54,15.00
2018,07,22,07,55,15.00
2018,07,22,07,56,15.00
2018,07,22,07,57,15.00
2018,07,22,07,58,15.00
2018,07,22,07,59,15.10
2018,07,22,08,00,15.30
2018,07,22,08,01,15.30
2018,07,22,08,02,15.40
2018,07,22,08,03,15.40
2018,07,22,08,04,15.50
2018,07,22,08,05,15.50
2018,07,22,08,06,15.60
2018,07,22,08,07,15.60
2018,07,22,08,08,15.70
2018,07,22,08,09,15.80
2018,07,22,08,10,15.80
2018,07,22,08,11,15.90
2018,07,22,08,12,15.90
2018,07,22,08,13,16.00
2018,07,22,08,14,16.10
2018,07,22,08,15,16.10
2018,07,22,08,16,16.20
2018,07,22,08,17,16.40
2018,07,22,08,18,16.50
2018,07,22,08,19,16.60
2018,07,22,08,20,16.80
2018,07,22,08,21,16.90
2018,07,22,08,22,17.00
2018,07,22,08,23,17.20
2018,07,22,08,24,17.30
2018,07,22,08,25,17.50
2018,07,22,08,26,17.70
2018,07,22,08,27,17.90
2018,07,22,08,28,18.10
2018,07,22,08,29,18.30
2018,07,22,08,30,18.40
2018,07,22,08,31,18.50
2018,07,22,08,32,18.70
2018,07,22,08,33,18.80
2018,07,22,08,34,18.90
2018,07,22,08,35,19.00
2018,07,22,08,36,19.10
2018,07,22,08,37,19.10
2018,07,22,08,38,19.20
2018,07,22,08,39,19.30
2018,07,22,08,40,19.40
2018,07,22,08,41,19.40
2018,07,22,08,42,19.50
2018,07,22,08,43,19.60
2018,07,22,08,44,19.60
2018,07,22,08,45,19.70
2018,07,22,08,46,19.80
2018,07,22,08,47,19.90
2018,07,22,08,48,20.00
2018,07,22,08,49,20.00
2018,07,22,08,50,20.10
2018,07,22,08,51,20.20
2018,07,22,08,52,20.30
2018,07,22,08,53,20.40
2018,07,22,08,54,20.50
2018,07,22,08,55,20.50
2018,07,22,08,56,20.60
2018,07,22,08,57,20.60
2018,07,22,08,58,20.60
2018,07,22,08,59,20.70
2018,07,22,09,00,20.80
2018,07,22,09,01,20.90
2018,07,22,09,02,20.90
2018,07,22,09,03,20.90
2018,07,22,09,04,21.00
2018,07,22,09,05,21.00
2018,07,22,09,06,21.10
2018,07,22,09,07,21.10
2018,07,22,09,08,21.20
2018,07,22,09,09,21.20
2018,07,22,09,10,21.30
2018,07,22,09,11,21.30
2018,07,22,09,12,21.30
2018,07,22,09,13,21.40
2018,07,22,09,14,21.40
2018,07,22,09,15,21.50
2018,07,22,09,16,21.60
2018,07,22,09,17,21.70
2018,07,22,09,18,21.70
2018,07,22,09,19,21.80
2018,07,22,09,20,21.80
2018,07,22,09,21,21.90
2018,07,22,09,22,22.00
2018,07,22,09,23,22.00
2018,07,22,09,24,22.00
2018,07,22,09,25,22.10
2018,07,22,09,26,22.10
2018,07,22,09,27,22.10
2018,07,22,09,28,22.10
2018,07,22,09,29,22.00
2018,07,22,09,30,22.00
2018,07,22,09,31,22.00
2018,07,22,09,32,22.00
2018,07,22,09,33,22.00
2018,07,22,09,34,21.90
2018,07,22,09,35,21.90
2018,07,22,09,36,21.90
2018,07,22,09,37,21.90
2018,07,22,09,38,21.90
2018,07,22,09,39,22.00
2018,07,22,09,40,21.90
2018,07,22,09,41,21.90
2018,07,22,09,42,21.90
2018,07,22,09,43,21.90
2018,07,22,09,44,21.90
2018,07,22,09,45,22.00
2018,07,22,09,46,22.00
2018,07,22,09,47,22.00
2018,07,22,09,48,22.00
2018,07,22,09,49,22.00
2018,07,22,09,50,22.00
2018,07,22,09,51,22.00
2018,07,22,09,52,22.00
2018,07,22,09,53,22.00
2018,07,22,09,54,22.00
2018,07,22,09,55,22.00
2018,07,22,09,56,22.00
2018,07,22,09,57,22.00
2018,07,22,09,58,22.00
2018,07,22,09,59,22.10
2018,07,22,10,00,22.10
2018,07,22,10,01,22.10
2018,07,22,10,02,22.20
2018,07,22,10,03,22.20
2018,07,22,10,04,22.30
2018,07,22,10,05,22.30
2018,07,22,10,06,22.30
2018,07,22,10,07,22.30
2018,07,22,10,08,22.30
2018,07,22,10,09,22.30
2018,07,22,10,10,22.40
2018,07,22,10,11,22.50
2018,07,22,10,12,22.50
2018,07,22,10,13,22.60
2018,07,22,10,14,22.60
2018,07,22,10,15,22.60
2018,07,22,10,16,22.70
2018,07,22,10,17,22.70
2018,07,22,10,18,22.80
2018,07,22,10,19,22.80
2018,07,22,10,20,22.90
2018,07,22,10,21,23.00
2018,07,22,10,22,23.10
2018,07,22,10,23,23.20
2018,07,22,10,24,23.20
2018,07,22,10,25,23.30
2018,07,22,10,26,23.30
2018,07,22,10,27,23.30
2018,07,22,10,28,23.30
2018,07,22,10,29,23.30
2018,07,22,10,30,23.30
2018,07,22,10,31,23.20
2018,07,22,10,32,23.20
2018,07,22,10,33,23.10
2018,07,22,10,34,23.10
2018,07,22,10,35,23.10
2018,07,22,10,36,23.10
2018,07,22,10,37,23.10
2018,07,22,10,38,23.10
2018,07,22,10,39,23.10
2018,07,22,10,40,23.20
2018,07,22,10,41,23.30
2018,07,22,10,42,23.30
2018,07,22,10,43,23.40
2018,07,22,10,44,23.60
2018,07,22,10,45,23.70
2018,07,22,10,46,23.80
2018,07,22,10,47,23.80
2018,07,22,10,48,23.80
2018,07,22,10,49,23.80
2018,07,22,10,50,23.70
2018,07,22,10,51,23.60
2018,07,22,10,52,23.60
2018,07,22,10,53,23.60
2018,07,22,10,54,23.60
2018,07,22,10,55,23.70
2018,07,22,10,56,23.70
2018,07,22,10,57,23.70
2018,07,22,10,58,23.80
2018,07,22,10,59,23.80
2018,07,22,11,00,23.80
2018,07,22,11,01,23.70
2018,07,22,11,02,23.70
2018,07,22,11,03,23.80
2018,07,22,11,04,23.80
2018,07,22,11,05,23.90
2018,07,22,11,06,24.00
2018,07,22,11,07,24.10
2018,07,22,11,08,24.10
2018,07,22,11,09,24.20
2018,07,22,11,10,24.20
2018,07,22,11,11,24.20
2018,07,22,11,12,24.20
2018,07,22,11,13,24.30
2018,07,22,11,14,24.30
2018,07,22,11,15,24.40
2018,07,22,11,16,24.40
2018,07,22,11,17,24.50
2018,07,22,11,18,24.50
2018,07,22,11,19,24.60
2018,07,22,11,20,24.60
2018,07,22,11,21,24.70
2018,07,22,11,22,24.70
2018,07,22,11,23,24.70
2018,07,22,11,24,24.80
2018,07,22,11,25,24.80
2018,07,22,11,26,24.80
2018,07,22,11,27,24.80
2018,07,22,11,28,24.90
2018,07,22,11,29,24.90
2018,07,22,11,30,24.90
2018,07,22,11,31,24.90
2018,07,22,11,32,24.90
2018,07,22,11,33,25.00
2018,07,22,11,34,25.00
2018,07,22,11,35,25.10
2018,07,22,11,36,25.10
2018,07,22,11,37,25.20
2018,07,22,11,38,25.20
2018,07,22,11,39,25.20
2018,07,22,11,40,25.20
2018,07,22,11,41,25.20
2018,07,22,11,42,25.20
2018,07,22,11,43,25.20
2018,07,22,11,44,25.20
2018,07,22,11,45,25.20
2018,07,22,11,46,25.20
2018,07,22,11,47,25.30
2018,07,22,11,48,25.30
2018,07,22,11,49,25.40
2018,07,22,11,50,25.40
2018,07,22,11,51,25.50
2018,07,22,11,52,25.50
2018,07,22,11,53,25.60
2018,07,22,11,54,25.60
2018,07,22,11,55,25.70
2018,07,22,11,56,25.70
2018,07,22,11,57,25.70
2018,07,22,11,58,25.70
2018,07,22,11,59,25.70
2018,07,22,12,00,25.70
2018,07,22,12,01,25.70
2018,07,22,12,02,25.70
2018,07,22,12,03,25.70
2018,07,22,12,04,25.70
2018,07,22,12,05,25.70
2018,07,22,12,06,25.70
2018,07,22,12,07,25.80
2018,07,22,12,08,25.90
2018,07,22,12,09,25.90
2018,07,22,12,10,25.90
2018,07,22,12,11,26.10
2018,07,22,12,12,26.20
2018,07,22,12,13,26.30
2018,07,22,12,14,26.30
2018,07,22,12,15,26.40
2018,07,22,12,16,26.30
2018,07,22,12,17,26.30
2018,07,22,12,18,26.30
2018,07,22,12,19,26.30
2018,07,22,12,20,26.40
2018,07,22,12,21,26.40
2018,07,22,12,22,26.50
2018,07,22,12,23,26.50
2018,07,22,12,24,26.60
2018,07,22,12,25,26.60
2018,07,22,12,26,26.50
2018,07,22,12,27,26.60
2018,07,22,12,28,26.60
2018,07,22,12,29,26.60
2018,07,22,12,30,26.60
2018,07,22,12,31,26.60
2018,07,22,12,32,26.60
2018,07,22,12,33,26.60
2018,07,22,12,34,26.70
2018,07,22,12,35,26.70
2018,07,22,12,36,26.70
2018,07,22,12,37,26.70
2018,07,22,12,38,26.80
2018,07,22,12,39,26.80
2018,07,22,12,40,26.80
2018,07,22,12,41,26.80
2018,07,22,12,42,26.80
2018,07,22,12,43,26.80
2018,07,22,12,44,26.80
2018,07,22,12,45,26.70
2018,07,22,12,46,26.60
2018,07,22,12,47,26.60
2018,07,22,12,48,26.60
2018,07,22,12,49,26.60
2018,07,22,12,50,26.60
2018,07,22,12,51,26.60
2018,07,22,12,52,26.70
2018,07,22,12,53,26.80
2018,07,22,12,54,27.00
2018,07,22,12,55,27.10
2018,07,22,12,56,27.10
2018,07,22,12,57,27.10
2018,07,22,12,58,27.20
2018,07,22,12,59,27.20
2018,07,22,13,00,27.20
2018,07,22,13,01,27.20
2018,07,22,13,02,27.30
2018,07,22,13,03,27.30
2018,07,22,13,04,27.30
2018,07,22,13,05,27.30
2018,07,22,13,06,27.30
2018,07,22,13,07,27.40
2018,07,22,13,08,27.40
2018,07,22,13,09,27.40
2018,07,22,13,10,27.30
2018,07,22,13,11,27.30
2018,07,22,13,12,27.20
2018,07,22,13,13,27.10
2018,07,22,13,14,27.10
2018,07,22,13,15,27.00
2018,07,22,13,16,27.00
2018,07,22,13,17,26.90
2018,07,22,13,18,26.90
2018,07,22,13,19,27.00
2018,07,22,13,20,27.10
2018,07,22,13,21,27.20
2018,07,22,13,22,27.30
2018,07,22,13,23,27.40
2018,07,22,13,24,27.50
2018,07,22,13,25,27.60
2018,07,22,13,26,27.70
2018,07,22,13,27,27.80
2018,07,22,13,28,27.90
2018,07,22,13,29,28.00
2018,07,22,13,30,28.00
2018,07,22,13,31,28.10
2018,07,22,13,32,28.10
2018,07,22,13,33,28.10
2018,07,22,13,34,28.20
2018,07,22,13,35,28.20
2018,07,22,13,36,28.20
2018,07,22,13,37,28.20
2018,07,22,13,38,28.20
2018,07,22,13,39,28.20
2018,07,22,13,40,28.30
2018,07,22,13,41,28.30
2018,07,22,13,42,28.40
2018,07,22,13,43,28.40
2018,07,22,13,44,28.40
2018,07,22,13,45,28.40
2018,07,22,13,46,28.40
2018,07,22,13,47,28.40
2018,07,22,13,48,28.40
2018,07,22,13,49,28.40
2018,07,22,13,50,28.30
2018,07,22,13,51,28.20
2018,07,22,13,52,28.10
2018,07,22,13,53,28.00
2018,07,22,13,54,28.00
2018,07,22,13,55,28.00
2018,07,22,13,56,28.00
2018,07,22,13,57,28.00
2018,07,22,13,58,28.00
2018,07,22,13,59,28.10
2018,07,22,14,00,28.10
2018,07,22,14,01,28.20
2018,07,22,14,02,28.20
2018,07,22,14,03,28.20
2018,07,22,14,04,28.20
2018,07,22,14,05,28.20
2018,07,22,14,06,28.30
2018,07,22,14,07,28.30
2018,07,22,14,08,28.40
2018,07,22,14,09,28.40
2018,07,22,14,10,28.40
2018,07,22,14,11,28.50
2018,07,22,14,12,28.60
2018,07,22,14,13,28.70
2018,07,22,14,14,28.60
2018,07,22,14,15,28.60
2018,07,22,14,16,28.60
2018,07,22,14,17,28.60
2018,07,22,14,18,28.60
2018,07,22,14,19,28.70
2018,07,22,14,20,28.70
2018,07,22,14,21,28.70
2018,07,22,14,22,28.70
2018,07,22,14,23,28.70
2018,07,22,14,24,28.80
2018,07,22,14,25,28.80
2018,07,22,14,26,28.80
2018,07,22,14,27,28.80
2018,07,22,14,28,28.70
2018,07,22,14,29,28.70
2018,07,22,14,30,28.70
2018,07,22,14,31,28.80
2018,07,22,14,32,28.70
2018,07,22,14,33,28.80
2018,07,22,14,34,28.80
2018,07,22,14,35,28.90
2018,07,22,14,36,29.00
2018,07,22,14,37,29.10
2018,07,22,14,38,29.10
2018,07,22,14,39,29.20
2018,07,22,14,40,29.20
2018,07,22,14,41,29.20
2018,07,22,14,42,29.20
2018,07,22,14,43,29.20
2018,07,22,14,44,29.20
2018,07,22,14,45,29.20
2018,07,22,14,46,29.20
2018,07,22,14,47,29.20
2018,07,22,14,48,29.10
2018,07,22,14,49,29.10
2018,07,22,14,50,29.10
2018,07,22,14,51,29.10
2018,07,22,14,52,29.10
2018,07,22,14,53,29.10
2018,07,22,14,54,29.10
2018,07,22,14,55,29.00
2018,07,22,14,56,28.90
2018,07,22,14,57,28.80
2018,07,22,14,58,28.80
2018,07,22,14,59,28.80
2018,07,22,15,00,28.80
2018,07,22,15,01,28.80
2018,07,22,15,02,28.80
2018,07,22,15,03,28.80
2018,07,22,15,04,28.80
2018,07,22,15,05,28.90
2018,07,22,15,06,29.00
2018,07,22,15,07,29.00
2018,07,22,15,08,29.10
2018,07,22,15,09,29.10
2018,07,22,15,10,29.20
2018,07,22,15,11,29.30
2018,07,22,15,12,29.40
2018,07,22,15,13,29.50
2018,07,22,15,14,29.50
2018,07,22,15,15,29.60
2018,07,22,15,16,29.60
2018,07,22,15,17,29.60
2018,07,22,15,18,29.60
2018,07,22,15,19,29.60
2018,07,22,15,20,29.60
2018,07,22,15,21,29.60
2018,07,22,15,22,29.60
2018,07,22,15,23,29.60
2018,07,22,15,24,29.60
2018,07,22,15,25,29.60
2018,07,22,15,26,29.70
2018,07,22,15,27,29.70
2018,07,22,15,28,29.70
2018,07,22,15,29,29.70
2018,07,22,15,30,29.60
2018,07,22,15,31,29.50
2018,07,22,15,32,29.40
2018,07,22,15,33,29.40
2018,07,22,15,34,29.40
2018,07,22,15,35,29.40
2018,07,22,15,36,29.50
2018,07,22,15,37,29.50
2018,07,22,15,38,29.60
2018,07,22,15,39,29.70
2018,07,22,15,40,29.80
2018,07,22,15,41,29.90
2018,07,22,15,42,30.00
2018,07,22,15,43,30.00
2018,07,22,15,44,29.90
2018,07,22,15,45,29.90
2018,07,22,15,46,29.90
2018,07,22,15,47,29.90
2018,07,22,15,48,29.90
2018,07,22,15,49,29.90
2018,07,22,15,50,29.90
2018,07,22,15,51,29.90
2018,07,22,15,52,30.00
2018,07,22,15,53,30.00
2018,07,22,15,54,30.10
2018,07,22,15,55,30.10
2018,07,22,15,56,30.10
2018,07,22,15,57,30.10
2018,07,22,15,58,30.10
2018,07,22,15,59,30.10
2018,07,22,16,00,30.20
2018,07,22,16,01,30.20
2018,07,22,16,02,30.20
2018,07,22,16,03,30.30
2018,07,22,16,04,30.30
2018,07,22,16,05,30.30
2018,07,22,16,06,30.40
2018,07,22,16,07,30.40
2018,07,22,16,08,30.40
2018,07,22,16,09,30.30
2018,07,22,16,10,30.30
2018,07,22,16,11,30.20
2018,07,22,16,12,30.10
2018,07,22,16,13,30.10
2018,07,22,16,14,30.10
2018,07,22,16,15,30.10
2018,07,22,16,16,30.20
2018,07,22,16,17,30.20
2018,07,22,16,18,30.20
2018,07,22,16,19,30.20
2018,07,22,16,20,30.20
2018,07,22,16,21,30.30
2018,07,22,16,22,30.30
2018,07,22,16,23,30.30
2018,07,22,16,24,30.30
2018,07,22,16,25,30.40
2018,07,22,16,26,30.40
2018,07,22,16,27,30.40
2018,07,22,16,28,30.40
2018,07,22,16,29,30.40
2018,07,22,16,30,30.30
2018,07,22,16,31,30.20
2018,07,22,16,32,30.10
2018,07,22,16,33,30.10
2018,07,22,16,34,30.10
2018,07,22,16,35,30.10
2018,07,22,16,36,30.10
2018,07,22,16,37,30.10
2018,07,22,16,38,30.10
2018,07,22,16,39,30.10
2018,07,22,16,40,30.10
2018,07,22,16,41,30.10
2018,07,22,16,42,30.10
2018,07,22,16,43,30.20
2018,07,22,16,44,30.20
2018,07,22,16,45,30.20
2018,07,22,16,46,30.20
2018,07,22,16,47,30.20
2018,07,22,16,48,30.20
2018,07,22,16,49,30.20
2018,07,22,16,50,30.10
2018,07,22,16,51,30.10
2018,07,22,16,52,30.10
2018,07,22,16,53,30.10
2018,07,22,16,54,30.20
2018,07,22,16,55,30.20
2018,07,22,16,56,30.20
2018,07,22,16,57,30.20
2018,07,22,16,58,30.20
2018,07,22,16,59,30.30
2018,07,22,17,00,30.20
2018,07,22,17,01,30.20
2018,07,22,17,02,30.10
2018,07,22,17,03,30.10
2018,07,22,17,04,30.10
2018,07,22,17,05,30.20
2018,07,22,17,06,30.20
2018,07,22,17,07,30.30
2018,07,22,17,08,30.20
2018,07,22,17,09,30.10
2018,07,22,17,10,30.00
2018,07,22,17,11,29.90
2018,07,22,17,12,29.90
2018,07,22,17,13,29.90
2018,07,22,17,14,29.80
2018,07,22,17,15,29.80
2018,07,22,17,16,29.80
2018,07,22,17,17,29.80
2018,07,22,17,18,29.80
2018,07,22,17,19,29.80